When you browse on this site, cookies collect data to enhance your experience and personalize the content and advertising you see.
Visit our Privacy Policy to learn more. By continuing to use the site, you agree to this use of cookies and data.
  • In Latvia
  • List of Countries
  • For 7 days
  • Water Temperature
  • Satellite Maps
  • Weather Map
  • Weather Widgets
  • user-avatar
    Login

    Hourly Weather Kraslava

    Today, 21 July, Sunday

    Time Temperature Precipitation Wind Pressure Humidity
    00:00 +15°C° 0 mm 1 mps 752 mmHg 85%
    01:00 +14°C° 0 mm 1 mps 752 mmHg 87%
    02:00 +14°C° 0 mm 1 mps 753 mmHg 89%
    03:00 +13°C° 0 mm 0 mps 753 mmHg 89%
    04:00 +13°C° 0 mm 0 mps 753 mmHg 89%
    05:00 +13°C° 0 mm 0 mps 753 mmHg 88%
    06:00 +15°C° 0 mm 0 mps 753 mmHg 80%
    07:00 +18°C° 0 mm 0 mps 753 mmHg 72%
    08:00 +23°C° 0 mm 1 mps 753 mmHg 64%
    09:00 +24°C° 0 mm 1 mps 753 mmHg 58%
    10:00 +25°C° 0 mm 1 mps 753 mmHg 52%
    11:00 +27°C° 0 mm 1 mps 753 mmHg 46%
    12:00 +27°C° 0 mm 1 mps 753 mmHg 45%
    13:00 +27°C° 0 mm 2 mps 752 mmHg 43%
    14:00 +28°C° 0 mm 2 mps 752 mmHg 40%
    15:00 +27°C° 0 mm 2 mps 752 mmHg 43%
    16:00 +27°C° 0 mm 2 mps 752 mmHg 45%
    17:00 +26°C° 0 mm 2 mps 751 mmHg 48%
    18:00 +25°C° 0 mm 2 mps 751 mmHg 56%
    19:00 +23°C° 0 mm 1 mps 751 mmHg 64%
    20:00 +21°C° 0 mm 1 mps 751 mmHg 71%
    21:00 +20°C° 0 mm 1 mps 751 mmHg 73%
    22:00 +19°C° 0 mm 1 mps 751 mmHg 74%
    23:00 +18°C° 0 mm 1 mps 751 mmHg 76%

    Tomorrow, 22 July, Monday

    Time Temperature Precipitation Wind Pressure Humidity
    00:00 +17°C° 0.2 mm 2 mps 751 mmHg 80%
    01:00 +17°C° 0.2 mm 2 mps 751 mmHg 85%
    02:00 +16°C° 0.2 mm 2 mps 751 mmHg 89%
    03:00 +16°C° 0.3 mm 2 mps 750 mmHg 91%
    04:00 +16°C° 0.3 mm 1 mps 750 mmHg 94%
    05:00 +16°C° 0.3 mm 1 mps 750 mmHg 96%
    06:00 +18°C° 0.7 mm 1 mps 750 mmHg 97%
    07:00 +18°C° 0.7 mm 1 mps 750 mmHg 97%
    08:00 +16°C° 0.7 mm 0 mps 750 mmHg 98%
    09:00 +18°C° 2.1 mm 1 mps 750 mmHg 98%
    10:00 +18°C° 2.1 mm 1 mps 750 mmHg 98%
    11:00 +18°C° 2.1 mm 1 mps 750 mmHg 98%
    12:00 +17°C° 2.7 mm 2 mps 750 mmHg 98%
    13:00 +17°C° 2.7 mm 2 mps 749 mmHg 98%
    14:00 +17°C° 2.7 mm 2 mps 749 mmHg 98%
    15:00 +17°C° 1.4 mm 2 mps 749 mmHg 98%
    16:00 +17°C° 1.4 mm 2 mps 749 mmHg 98%
    17:00 +17°C° 1.4 mm 2 mps 749 mmHg 98%
    18:00 +17°C° 0.4 mm 2 mps 749 mmHg 98%
    19:00 +18°C° 0.4 mm 1 mps 749 mmHg 98%
    20:00 +18°C° 0.4 mm 1 mps 749 mmHg 98%
    21:00 +16°C° 0.8 mm 1 mps 749 mmHg 98%
    22:00 +16°C° 0.8 mm 1 mps 749 mmHg 98%
    23:00 +16°C° 0.8 mm 2 mps 749 mmHg 99%

    Day after tomorrow, 23 July, Tuesday

    Time Temperature Precipitation Wind Pressure Humidity
    00:00 +16°C° 0.5 mm 2 mps 749 mmHg 99%
    01:00 +16°C° 0.5 mm 2 mps 749 mmHg 98%
    02:00 +16°C° 0.5 mm 2 mps 749 mmHg 98%
    03:00 +16°C° 0 mm 2 mps 749 mmHg 98%
    04:00 +16°C° 0 mm 2 mps 749 mmHg 97%
    05:00 +15°C° 0 mm 2 mps 749 mmHg 97%
    06:00 +16°C° 0.1 mm 3 mps 749 mmHg 95%
    07:00 +17°C° 0.1 mm 3 mps 749 mmHg 93%
    08:00 +18°C° 0.1 mm 3 mps 749 mmHg 90%
    09:00 +20°C° 0.1 mm 3 mps 749 mmHg 78%
    10:00 +22°C° 0.1 mm 3 mps 750 mmHg 66%
    11:00 +25°C° 0.1 mm 3 mps 750 mmHg 54%
    12:00 +25°C° 0 mm 3 mps 750 mmHg 52%
    13:00 +26°C° 0 mm 4 mps 750 mmHg 51%
    14:00 +26°C° 0 mm 4 mps 749 mmHg 49%
    15:00 +26°C° 0 mm 3 mps 750 mmHg 51%
    16:00 +26°C° 0 mm 3 mps 750 mmHg 53%
    17:00 +26°C° 0 mm 3 mps 750 mmHg 55%
    18:00 +24°C° 0 mm 2 mps 750 mmHg 63%
    19:00 +22°C° 0 mm 1 mps 750 mmHg 71%
    20:00 +20°C° 0 mm 1 mps 749 mmHg 78%
    21:00 +19°C° 0 mm 1 mps 750 mmHg 81%
    22:00 +18°C° 0 mm 1 mps 750 mmHg 83%
    23:00 +16°C° 0 mm 1 mps 751 mmHg 85%

    24 July, Wednesday

    Time Temperature Precipitation Wind Pressure Humidity
    00:00 +16°C° 0 mm 1 mps 751 mmHg 85%
    01:00 +15°C° 0 mm 1 mps 751 mmHg 85%
    02:00 +15°C° 0 mm 1 mps 751 mmHg 84%
    03:00 +15°C° 0 mm 1 mps 751 mmHg 86%
    04:00 +15°C° 0 mm 1 mps 751 mmHg 87%
    05:00 +15°C° 0 mm 1 mps 751 mmHg 88%
    06:00 +18°C° 0 mm 1 mps 751 mmHg 80%
    07:00 +20°C° 0 mm 1 mps 752 mmHg 73%
    08:00 +22°C° 0 mm 1 mps 752 mmHg 66%
    09:00 +24°C° 0 mm 1 mps 752 mmHg 60%
    10:00 +25°C° 0 mm 1 mps 752 mmHg 54%
    11:00 +27°C° 0 mm 1 mps 752 mmHg 48%
    12:00 +27°C° 0 mm 1 mps 752 mmHg 48%
    13:00 +27°C° 0 mm 1 mps 752 mmHg 48%
    14:00 +27°C° 0 mm 1 mps 752 mmHg 49%
    15:00 +26°C° 0 mm 1 mps 752 mmHg 52%
    16:00 +26°C° 0 mm 1 mps 752 mmHg 55%
    17:00 +26°C° 0 mm 1 mps 752 mmHg 59%
    18:00 +25°C° 0.1 mm 1 mps 752 mmHg 67%
    19:00 +23°C° 0.1 mm 1 mps 752 mmHg 76%
    20:00 +21°C° 0.1 mm 1 mps 753 mmHg 84%
    21:00 +20°C° 0 mm 1 mps 753 mmHg 86%
    22:00 +19°C° 0 mm 1 mps 753 mmHg 89%
    23:00 +18°C° 0 mm 1 mps 754 mmHg 91%

    25 July, Thursday

    Time Temperature Precipitation Wind Pressure Humidity
    00:00 +18°C° 0 mm 1 mps 754 mmHg 92%
    01:00 +18°C° 0 mm 1 mps 754 mmHg 93%
    02:00 +16°C° 0 mm 1 mps 754 mmHg 95%
    03:00 +16°C° 0 mm 1 mps 754 mmHg 94%
    04:00 +16°C° 0 mm 1 mps 754 mmHg 92%
    05:00 +16°C° 0 mm 1 mps 755 mmHg 91%
    06:00 +19°C° 0 mm 1 mps 755 mmHg 85%
    07:00 +20°C° 0 mm 1 mps 755 mmHg 80%
    08:00 +21°C° 0 mm 2 mps 755 mmHg 74%
    09:00 +24°C° 0 mm 2 mps 755 mmHg 67%
    10:00 +25°C° 0 mm 2 mps 755 mmHg 61%
    11:00 +27°C° 0 mm 2 mps 756 mmHg 54%
    12:00 +27°C° 0 mm 2 mps 756 mmHg 52%
    13:00 +28°C° 0 mm 2 mps 755 mmHg 49%
    14:00 +28°C° 0 mm 2 mps 755 mmHg 47%
    15:00 +28°C° 0 mm 2 mps 755 mmHg 50%
    16:00 +28°C° 0 mm 2 mps 755 mmHg 54%
    17:00 +27°C° 0 mm 2 mps 755 mmHg 57%
    18:00 +26°C° 0 mm 2 mps 755 mmHg 64%
    19:00 +24°C° 0 mm 2 mps 755 mmHg 71%
    20:00 +22°C° 0 mm 1 mps 755 mmHg 78%
    21:00 +22°C° 0 mm 1 mps 755 mmHg 81%
    22:00 +21°C° 0 mm 1 mps 756 mmHg 84%
    23:00 +20°C° 0 mm 1 mps 756 mmHg 87%

    26 July, Friday

    Time Temperature Precipitation Wind Pressure Humidity
    00:00 +19°C° 0 mm 1 mps 756 mmHg 87%
    01:00 +19°C° 0 mm 1 mps 756 mmHg 87%
    02:00 +18°C° 0 mm 1 mps 756 mmHg 86%
    03:00 +18°C° 0 mm 1 mps 756 mmHg 88%
    04:00 +18°C° 0 mm 1 mps 756 mmHg 89%
    05:00 +18°C° 0 mm 1 mps 756 mmHg 90%
    06:00 +20°C° 0 mm 1 mps 756 mmHg 84%
    07:00 +22°C° 0 mm 1 mps 756 mmHg 78%
    08:00 +24°C° 0 mm 2 mps 756 mmHg 72%
    09:00 +25°C° 0 mm 2 mps 756 mmHg 65%
    10:00 +27°C° 0 mm 2 mps 756 mmHg 59%
    11:00 +28°C° 0 mm 2 mps 756 mmHg 52%
    12:00 +29°C° 0 mm 2 mps 756 mmHg 51%
    13:00 +29°C° 0 mm 2 mps 756 mmHg 50%
    14:00 +29°C° 0 mm 2 mps 755 mmHg 50%
    15:00 +29°C° 0 mm 2 mps 755 mmHg 53%
    16:00 +29°C° 0 mm 2 mps 755 mmHg 56%
    17:00 +28°C° 0 mm 2 mps 754 mmHg 59%
    18:00 +27°C° 0 mm 2 mps 754 mmHg 65%
    19:00 +25°C° 0 mm 1 mps 754 mmHg 71%
    20:00 +24°C° 0 mm 1 mps 754 mmHg 78%
    21:00 +23°C° 0 mm 1 mps 754 mmHg 80%
    22:00 +22°C° 0 mm 1 mps 754 mmHg 83%
    23:00 +21°C° 0 mm 1 mps 754 mmHg 85%
    Show more